| time (UTC) | temp F | wind direction | speed MPH | gust MPH | rain 1hr in | rain 24hr in | rain mn in | humidity % | barometer mb |
| 20260904144642 | 93 | 187 | 0.0 | 7.0 | 0.00 | 0.00 | 0.00 | 100 | 1013.7 |
| 20260904144355 | 93 | 187 | 0.0 | 7.0 | 0.00 | 0.00 | 0.00 | 100 | 1013.7 |
| 20260904143855 | 93 | 189 | 0.0 | 7.0 | 0.00 | 0.00 | 0.00 | 100 | 1013.7 |
| 20260904143355 | 93 | 234 | 4.0 | 5.0 | 0.00 | 0.00 | 0.00 | 100 | 1013.6 |
| 20260904142855 | 92 | 196 | 4.0 | 6.0 | 0.00 | 0.00 | 0.00 | 100 | 1013.7 |
| 20260904142355 | 92 | 312 | 1.0 | 3.0 | 0.00 | 0.00 | 0.00 | 100 | 1013.6 |
| 20260904141856 | 92 | 180 | 0.0 | 6.0 | 0.00 | 0.00 | 0.00 | 100 | 1013.6 |
| 20260904141355 | 92 | 219 | 0.0 | 5.0 | 0.00 | 0.00 | 0.00 | 100 | 1013.5 |
| 20260904140855 | 91 | 194 | 0.0 | 6.0 | 0.00 | 0.00 | 0.00 | 100 | 1013.6 |
| 20260904140356 | 91 | 270 | 2.0 | 4.0 | 0.00 | 0.00 | 0.00 | 100 | 1013.6 |
| 20260904140120 | 91 | 195 | 0.0 | 4.0 | 0.00 | 0.00 | 0.00 | 100 | 1013.6 |
| 20260904135856 | 91 | 195 | 0.0 | 4.0 | 0.00 | 0.00 | 0.00 | 100 | 1013.6 |
| 20260904135356 | 90 | 233 | 1.0 | 6.0 | 0.00 | 0.00 | 0.00 | 100 | 1013.7 |
| 20260904134856 | 90 | 272 | 2.0 | 5.0 | 0.00 | 0.00 | 0.00 | 100 | 1013.7 |
| 20260904134646 | 90 | 209 | 1.0 | 4.0 | 0.00 | 0.00 | 0.00 | 100 | 1013.6 |
| 20260904134356 | 90 | 209 | 1.0 | 4.0 | 0.00 | 0.00 | 0.00 | 100 | 1013.6 |
| 20260904133856 | 90 | 278 | 0.0 | 0.0 | 0.00 | 0.00 | 0.00 | 100 | 1013.5 |
| 20260904133356 | 89 | 278 | 0.0 | 3.0 | 0.00 | 0.00 | 0.00 | 100 | 1013.7 |
| 20260904133144 | 89 | 277 | 0.0 | 1.0 | 0.00 | 0.00 | 0.00 | 100 | 1013.6 |
| 20260904132856 | 89 | 277 | 0.0 | 1.0 | 0.00 | 0.00 | 0.00 | 100 | 1013.6 |
| 20260904132356 | 89 | 101 | 0.0 | 1.0 | 0.00 | 0.00 | 0.00 | 100 | 1013.6 |
| 20260904131856 | 89 | 133 | 0.0 | 2.0 | 0.00 | 0.00 | 0.00 | 100 | 1013.5 |
| 20260904131356 | 88 | 205 | 1.0 | 5.0 | 0.00 | 0.00 | 0.00 | 100 | 1013.5 |
| 20260904130856 | 88 | 216 | 3.0 | 5.0 | 0.00 | 0.00 | 0.00 | 100 | 1013.5 |
| 20260904130356 | 88 | 244 | 3.0 | 3.0 | 0.00 | 0.00 | 0.00 | 100 | 1013.5 |
| 20260904125856 | 87 | 205 | 0.0 | 3.0 | 0.00 | 0.00 | 0.00 | 100 | 1013.2 |
| 20260904125356 | 87 | 189 | 1.0 | 5.0 | 0.00 | 0.00 | 0.00 | 100 | 1013.0 |
| 20260904124856 | 87 | 244 | 4.0 | 6.0 | 0.00 | 0.00 | 0.00 | 100 | 1013.0 |
| 20260904124702 | 86 | 188 | 1.0 | 4.0 | 0.00 | 0.00 | 0.00 | 100 | 1013.0 |
| 20260904124356 | 86 | 188 | 1.0 | 4.0 | 0.00 | 0.00 | 0.00 | 100 | 1013.0 |
| 20260904123856 | 86 | 194 | 1.0 | 6.0 | 0.00 | 0.00 | 0.00 | 100 | 1013.1 |
| 20260904123356 | 86 | 191 | 1.0 | 5.0 | 0.00 | 0.00 | 0.00 | 100 | 1013.1 |
| 20260904122856 | 85 | 168 | 0.0 | 0.0 | 0.00 | 0.00 | 0.00 | 100 | 1013.1 |
| 20260904122612 | 85 | 125 | 0.0 | 3.0 | 0.00 | 0.00 | 0.00 | 100 | 1012.9 |
| 20260904122356 | 85 | 125 | 0.0 | 3.0 | 0.00 | 0.00 | 0.00 | 100 | 1012.9 |
| 20260904121856 | 85 | 181 | 2.0 | 3.0 | 0.00 | 0.00 | 0.00 | 100 | 1012.8 |
| 20260904121605 | 85 | 150 | 0.0 | 3.0 | 0.00 | 0.00 | 0.00 | 100 | 1012.8 |
| 20260904121356 | 85 | 150 | 0.0 | 3.0 | 0.00 | 0.00 | 0.00 | 100 | 1012.8 |
| 20260904120856 | 84 | 191 | 0.0 | 3.0 | 0.00 | 0.00 | 0.00 | 100 | 1012.9 |
| 20260904120356 | 84 | 205 | 0.0 | 4.0 | 0.00 | 0.00 | 0.00 | 100 | 1012.9 |
| 20260904115856 | 84 | 219 | 0.0 | 1.0 | 0.00 | 0.00 | 0.00 | 100 | 1012.9 |
| 20260904115356 | 84 | 178 | 0.0 | 2.0 | 0.00 | 0.00 | 0.00 | 100 | 1012.9 |
| 20260904114856 | 84 | 205 | 0.0 | 0.0 | 0.00 | 0.00 | 0.00 | 100 | 1012.8 |
| 20260904114356 | 84 | 205 | 0.0 | 0.0 | 0.00 | 0.00 | 0.00 | 100 | 1012.8 |
| 20260904113856 | 84 | 205 | 0.0 | 0.0 | 0.00 | 0.00 | 0.00 | 100 | 1012.6 |
| 20260904113536 | 84 | 205 | 0.0 | 0.0 | 0.00 | 0.00 | 0.00 | 100 | 1012.8 |
| 20260904113356 | 84 | 205 | 0.0 | 0.0 | 0.00 | 0.00 | 0.00 | 100 | 1012.8 |
| 20260904113043 | 84 | 205 | 0.0 | 0.0 | 0.00 | 0.00 | 0.00 | 100 | 1012.6 |
| 20260904112856 | 84 | 205 | 0.0 | 0.0 | 0.00 | 0.00 | 0.00 | 100 | 1012.6 |
| 20260904112356 | 84 | 205 | 0.0 | 0.0 | 0.00 | 0.00 | 0.00 | 100 | 1012.5 |
| 20260904111856 | 84 | 205 | 0.0 | 0.0 | 0.00 | 0.00 | 0.00 | 100 | 1012.4 |
| 20260904111552 | 84 | 205 | 0.0 | 0.0 | 0.00 | 0.00 | 0.00 | 100 | 1012.3 |
| 20260904111356 | 84 | 205 | 0.0 | 0.0 | 0.00 | 0.00 | 0.00 | 100 | 1012.3 |
| 20260904110856 | 84 | 205 | 0.0 | 0.0 | 0.00 | 0.00 | 0.00 | 100 | 1012.2 |
| 20260904110356 | 84 | 205 | 0.0 | 0.0 | 0.00 | 0.00 | 0.00 | 100 | 1012.3 |
| 20260904105856 | 84 | 205 | 0.0 | 0.0 | 0.00 | 0.00 | 0.00 | 100 | 1012.2 |
| 20260904105356 | 84 | 205 | 0.0 | 0.0 | 0.00 | 0.00 | 0.00 | 100 | 1012.1 |
| 20260904104856 | 84 | 205 | 0.0 | 0.0 | 0.00 | 0.00 | 0.00 | 100 | 1012.1 |
| 20260904104356 | 84 | 205 | 0.0 | 0.0 | 0.00 | 0.00 | 0.00 | 100 | 1012.1 |
| 20260904103856 | 84 | 205 | 0.0 | 1.0 | 0.00 | 0.00 | 0.00 | 100 | 1012.0 |
| 20260904103358 | 0 | 158 | 0.0 | 0.0 | 0.00 | 0.00 | 0.00 | ||
| 20260904103356 | 84 | 158 | 0.0 | 0.0 | 0.00 | 0.00 | 0.00 | 100 | 1012.1 |
| 20260904102856 | 84 | 158 | 0.0 | 3.0 | 0.00 | 0.00 | 0.00 | 100 | 1012.0 |
| 20260904102356 | 84 | 168 | 2.0 | 2.0 | 0.00 | 0.00 | 0.00 | 100 | 1012.1 |
| 20260904101856 | 84 | 109 | 0.0 | 0.0 | 0.00 | 0.00 | 0.00 | 100 | 1012.1 |
| 20260904101538 | 84 | 109 | 0.0 | 0.0 | 0.00 | 0.00 | 0.00 | 100 | 1012.1 |
| 20260904101356 | 84 | 109 | 0.0 | 0.0 | 0.00 | 0.00 | 0.00 | 100 | 1012.1 |
| 20260904100856 | 84 | 109 | 0.0 | 0.0 | 0.00 | 0.00 | 0.00 | 100 | 1012.1 |
| 20260904100356 | 84 | 109 | 0.0 | 0.0 | 0.00 | 0.00 | 0.00 | 100 | 1012.0 |
| 20260904100139 | 84 | 109 | 0.0 | 0.0 | 0.00 | 0.00 | 0.00 | 100 | 1011.9 |
| 20260904095856 | 84 | 109 | 0.0 | 0.0 | 0.00 | 0.00 | 0.00 | 100 | 1011.9 |
| 20260904095356 | 84 | 109 | 0.0 | 0.0 | 0.00 | 0.00 | 0.00 | 100 | 1011.9 |
| 20260904094856 | 84 | 109 | 0.0 | 0.0 | 0.00 | 0.00 | 0.00 | 100 | 1011.8 |
| 20260904094356 | 84 | 109 | 0.0 | 0.0 | 0.00 | 0.00 | 0.00 | 100 | 1011.8 |
| 20260904093856 | 84 | 109 | 0.0 | 0.0 | 0.00 | 0.00 | 0.00 | 100 | 1011.8 |
| 20260904093707 | 84 | 109 | 0.0 | 0.0 | 0.00 | 0.00 | 0.00 | 100 | 1011.8 |
| 20260904093356 | 84 | 109 | 0.0 | 0.0 | 0.00 | 0.00 | 0.00 | 100 | 1011.8 |
| 20260904092856 | 84 | 109 | 0.0 | 0.0 | 0.00 | 0.00 | 0.00 | 100 | 1011.8 |
| 20260904092356 | 84 | 109 | 0.0 | 0.0 | 0.00 | 0.00 | 0.00 | 100 | 1011.7 |
| 20260904091856 | 84 | 109 | 0.0 | 0.0 | 0.00 | 0.00 | 0.00 | 100 | 1011.6 |
| 20260904091615 | 84 | 127 | 0.0 | 0.0 | 0.00 | 0.00 | 0.00 | 100 | 1011.6 |
| 20260904091356 | 84 | 127 | 0.0 | 0.0 | 0.00 | 0.00 | 0.00 | 100 | 1011.6 |
| 20260904090856 | 84 | 127 | 0.0 | 0.0 | 0.00 | 0.00 | 0.00 | 100 | 1011.6 |
| 20260904090356 | 84 | 127 | 0.0 | 0.0 | 0.00 | 0.00 | 0.00 | 100 | 1011.6 |
| 20260904085856 | 84 | 127 | 0.0 | 0.0 | 0.00 | 0.00 | 0.00 | 100 | 1011.5 |
| 20260904085740 | 84 | 127 | 0.0 | 0.0 | 0.00 | 0.00 | 0.00 | 100 | 1011.6 |
| 20260904085356 | 84 | 127 | 0.0 | 0.0 | 0.00 | 0.00 | 0.00 | 100 | 1011.6 |
| 20260904084856 | 84 | 127 | 0.0 | 0.0 | 0.00 | 0.00 | 0.00 | 100 | 1011.6 |
| 20260904084356 | 84 | 127 | 0.0 | 0.0 | 0.00 | 0.00 | 0.00 | 100 | 1011.5 |
| 20260904083856 | 84 | 127 | 0.0 | 0.0 | 0.00 | 0.00 | 0.00 | 100 | 1011.4 |
| 20260904083356 | 84 | 127 | 0.0 | 2.0 | 0.00 | 0.00 | 0.00 | 100 | 1011.5 |
| 20260904083241 | 84 | 154 | 2.0 | 2.0 | 0.00 | 0.00 | 0.00 | 100 | 1011.5 |
| 20260904082856 | 84 | 154 | 2.0 | 2.0 | 0.00 | 0.00 | 0.00 | 100 | 1011.5 |
| 20260904082356 | 84 | 139 | 0.0 | 0.0 | 0.00 | 0.00 | 0.00 | 100 | 1011.5 |
| 20260904081857 | 84 | 139 | 0.0 | 1.0 | 0.00 | 0.00 | 0.00 | 100 | 1011.4 |
| 20260904081356 | 84 | 149 | 0.0 | 0.0 | 0.00 | 0.00 | 0.00 | 100 | 1011.4 |
| 20260904080856 | 84 | 126 | 0.0 | 3.0 | 0.00 | 0.00 | 0.00 | 100 | 1011.5 |
| 20260904080700 | 84 | 172 | 0.0 | 0.0 | 0.00 | 0.00 | 0.00 | 100 | 1011.5 |
| 20260904080356 | 84 | 172 | 0.0 | 0.0 | 0.00 | 0.00 | 0.00 | 100 | 1011.5 |
| 20260904075856 | 84 | 172 | 0.0 | 0.0 | 0.00 | 0.00 | 0.00 | 100 | 1011.6 |
| 20260904075356 | 84 | 172 | 0.0 | 0.0 | 0.00 | 0.00 | 0.00 | 100 | 1011.6 |
| 20260904075310 | 84 | 172 | 0.0 | 0.0 | 0.00 | 0.00 | 0.00 | 100 | 1011.7 |
| 20260904074856 | 84 | 172 | 0.0 | 0.0 | 0.00 | 0.00 | 0.00 | 100 | 1011.7 |
| 20260904074644 | 84 | 172 | 0.0 | 0.0 | 0.00 | 0.00 | 0.00 | 100 | 1011.6 |
| 20260904074356 | 84 | 172 | 0.0 | 0.0 | 0.00 | 0.00 | 0.00 | 100 | 1011.6 |
| 20260904073856 | 84 | 172 | 0.0 | 0.0 | 0.00 | 0.00 | 0.00 | 100 | 1011.6 |
| 20260904073356 | 84 | 172 | 0.0 | 0.0 | 0.00 | 0.00 | 0.00 | 100 | 1011.6 |
| 20260904072856 | 84 | 172 | 0.0 | 0.0 | 0.00 | 0.00 | 0.00 | 100 | 1011.6 |
| 20260904072637 | 85 | 172 | 0.0 | 0.0 | 0.00 | 0.00 | 0.00 | 100 | 1011.6 |
| 20260904072356 | 85 | 172 | 0.0 | 0.0 | 0.00 | 0.00 | 0.00 | 100 | 1011.6 |
| 20260904071856 | 85 | 172 | 0.0 | 0.0 | 0.00 | 0.00 | 0.00 | 100 | 1011.6 |
| 20260904071542 | 85 | 172 | 0.0 | 0.0 | 0.00 | 0.00 | 0.00 | 100 | 1011.6 |
| 20260904071356 | 85 | 172 | 0.0 | 0.0 | 0.00 | 0.00 | 0.00 | 100 | 1011.6 |
| 20260904070856 | 85 | 172 | 0.0 | 0.0 | 0.00 | 0.00 | 0.00 | 100 | 1011.6 |
| 20260904070356 | 85 | 184 | 0.0 | 2.0 | 0.00 | 0.00 | 0.00 | 100 | 1011.7 |
| 20260904070112 | 85 | 217 | 1.0 | 3.0 | 0.00 | 0.00 | 0.00 | 100 | 1011.6 |
| 20260904065856 | 85 | 217 | 1.0 | 3.0 | 0.00 | 0.00 | 0.00 | 100 | 1011.6 |
| 20260904065627 | 85 | 237 | 2.0 | 2.0 | 0.00 | 0.00 | 0.00 | 100 | 1011.5 |
| 20260904065356 | 85 | 237 | 2.0 | 2.0 | 0.00 | 0.00 | 0.00 | 100 | 1011.5 |
| 20260904064856 | 85 | 174 | 0.0 | 3.0 | 0.00 | 0.00 | 0.00 | 100 | 1011.6 |
| 20260904064617 | 85 | 170 | 0.0 | 2.0 | 0.00 | 0.00 | 0.00 | 100 | 1011.6 |
| 20260904064356 | 85 | 170 | 0.0 | 2.0 | 0.00 | 0.00 | 0.00 | 100 | 1011.6 |
| 20260904063856 | 85 | 191 | 0.0 | 3.0 | 0.00 | 0.00 | 0.00 | 100 | 1011.5 |
| 20260904063654 | 85 | 167 | 1.0 | 6.0 | 0.00 | 0.00 | 0.00 | 100 | 1011.5 |
| 20260904063356 | 85 | 167 | 1.0 | 6.0 | 0.00 | 0.00 | 0.00 | 100 | 1011.5 |
| 20260904062856 | 85 | 177 | 0.0 | 3.0 | 0.00 | 0.00 | 0.00 | 100 | 1011.6 |
| 20260904062356 | 85 | 191 | 1.0 | 4.0 | 0.00 | 0.00 | 0.00 | 100 | 1011.6 |
| 20260904061856 | 85 | 217 | 1.0 | 6.0 | 0.00 | 0.00 | 0.00 | 100 | 1011.6 |
| 20260904061356 | 85 | 205 | 0.0 | 4.0 | 0.00 | 0.00 | 0.00 | 100 | 1011.7 |
| 20260904060856 | 85 | 215 | 2.0 | 5.0 | 0.00 | 0.00 | 0.00 | 100 | 1011.6 |
| 20260904060356 | 85 | 202 | 1.0 | 5.0 | 0.00 | 0.00 | 0.00 | 100 | 1011.8 |
| 20260904055856 | 85 | 139 | 0.0 | 6.0 | 0.00 | 0.00 | 0.00 | 100 | 1011.9 |
| 20260904055618 | 85 | 201 | 0.0 | 4.0 | 0.00 | 0.00 | 0.00 | 100 | 1012.1 |
| 20260904055356 | 85 | 201 | 0.0 | 4.0 | 0.00 | 0.00 | 0.00 | 100 | 1012.1 |
| 20260904054856 | 85 | 133 | 0.0 | 4.0 | 0.00 | 0.00 | 0.00 | 100 | 1012.1 |
| 20260904054655 | 85 | 125 | 0.0 | 2.0 | 0.00 | 0.00 | 0.00 | 100 | 1012.1 |
| 20260904054356 | 85 | 125 | 0.0 | 2.0 | 0.00 | 0.00 | 0.00 | 100 | 1012.1 |
| 20260904053856 | 85 | 158 | 0.0 | 4.0 | 0.00 | 0.00 | 0.00 | 100 | 1012.2 |
| 20260904053356 | 85 | 163 | 1.0 | 4.0 | 0.00 | 0.00 | 0.00 | 100 | 1012.2 |
| 20260904052856 | 85 | 202 | 1.0 | 4.0 | 0.00 | 0.00 | 0.00 | 100 | 1012.1 |
| 20260904052719 | 85 | 171 | 4.0 | 5.0 | 0.00 | 0.00 | 0.00 | 100 | 1012.1 |
| 20260904052356 | 85 | 171 | 4.0 | 5.0 | 0.00 | 0.00 | 0.00 | 100 | 1012.1 |
| 20260904051856 | 85 | 199 | 0.0 | 5.0 | 0.00 | 0.00 | 0.00 | 100 | 1012.0 |
| 20260904051613 | 85 | 212 | 3.0 | 4.0 | 0.00 | 0.00 | 0.00 | 100 | 1012.1 |
| 20260904051356 | 85 | 212 | 3.0 | 4.0 | 0.00 | 0.00 | 0.00 | 100 | 1012.1 |
| 20260904050856 | 85 | 220 | 0.0 | 6.0 | 0.00 | 0.00 | 0.00 | 100 | 1012.1 |
| 20260904050616 | 85 | 163 | 1.0 | 4.0 | 0.00 | 0.00 | 0.00 | 100 | 1012.2 |
| 20260904050356 | 85 | 163 | 1.0 | 4.0 | 0.00 | 0.00 | 0.00 | 100 | 1012.2 |
| 20260904045856 | 85 | 191 | 0.0 | 5.0 | 0.00 | 0.00 | 0.00 | 100 | 1012.3 |
| 20260904045605 | 85 | 232 | 3.0 | 3.0 | 0.00 | 0.00 | 0.00 | 100 | 1012.3 |
| 20260904045356 | 85 | 232 | 3.0 | 3.0 | 0.00 | 0.00 | 0.00 | 100 | 1012.3 |
| 20260904044856 | 85 | 196 | 2.0 | 4.0 | 0.00 | 0.00 | 0.00 | 100 | 1012.3 |
| 20260904044356 | 85 | 161 | 2.0 | 5.0 | 0.00 | 0.00 | 0.00 | 100 | 1012.3 |
| 20260904043856 | 85 | 213 | 2.0 | 6.0 | 0.00 | 0.00 | 0.00 | 100 | 1012.2 |
| 20260904043356 | 85 | 199 | 2.0 | 2.0 | 0.00 | 0.00 | 0.00 | 100 | 1012.2 |
| 20260904042856 | 85 | 160 | 1.0 | 5.0 | 0.00 | 0.00 | 0.00 | 100 | 1012.3 |
| 20260904042656 | 85 | 185 | 1.0 | 3.0 | 0.00 | 0.00 | 0.00 | 100 | 1012.3 |
| 20260904042356 | 85 | 185 | 1.0 | 3.0 | 0.00 | 0.00 | 0.00 | 100 | 1012.3 |
| 20260904041856 | 85 | 154 | 1.0 | 6.0 | 0.00 | 0.00 | 0.00 | 100 | 1012.4 |
| 20260904041534 | 85 | 198 | 0.0 | 5.0 | 0.00 | 0.00 | 0.00 | 100 | 1012.3 |
| 20260904041356 | 85 | 198 | 0.0 | 5.0 | 0.00 | 0.00 | 0.00 | 100 | 1012.3 |
| 20260904040856 | 85 | 225 | 3.0 | 4.0 | 0.00 | 0.00 | 0.00 | 100 | 1012.3 |
| 20260904040658 | 85 | 160 | 0.0 | 6.0 | 0.00 | 0.00 | 0.00 | 100 | 1012.2 |
| 20260904040356 | 85 | 160 | 0.0 | 6.0 | 0.00 | 0.00 | 0.00 | 100 | 1012.2 |
| 20260904040113 | 85 | 206 | 1.0 | 6.0 | 0.00 | 0.00 | 0.00 | 100 | 1012.3 |
| 20260904035856 | 85 | 206 | 1.0 | 6.0 | 0.00 | 0.00 | 0.00 | 100 | 1012.3 |
| 20260904035629 | 85 | 182 | 0.0 | 3.0 | 0.00 | 0.00 | 0.00 | 100 | 1012.3 |
| 20260904035356 | 85 | 182 | 0.0 | 3.0 | 0.00 | 0.00 | 0.00 | 100 | 1012.3 |
| 20260904034856 | 86 | 171 | 0.0 | 3.0 | 0.00 | 0.00 | 0.00 | 100 | 1012.2 |
| 20260904034356 | 86 | 180 | 1.0 | 3.0 | 0.00 | 0.00 | 0.00 | 100 | 1012.2 |
| 20260904034150 | 86 | 189 | 1.0 | 4.0 | 0.00 | 0.00 | 0.00 | 100 | 1012.3 |
| 20260904033856 | 86 | 189 | 1.0 | 4.0 | 0.00 | 0.00 | 0.00 | 100 | 1012.3 |
| 20260904033708 | 85 | 206 | 2.0 | 3.0 | 0.00 | 0.00 | 0.00 | 100 | 1012.3 |
| 20260904033356 | 85 | 206 | 2.0 | 3.0 | 0.00 | 0.00 | 0.00 | 100 | 1012.3 |
| 20260904032856 | 86 | 175 | 0.0 | 4.0 | 0.00 | 0.00 | 0.00 | 100 | 1012.3 |
| 20260904032642 | 86 | 195 | 1.0 | 4.0 | 0.00 | 0.00 | 0.00 | 100 | 1012.3 |
| 20260904032356 | 86 | 195 | 1.0 | 4.0 | 0.00 | 0.00 | 0.00 | 100 | 1012.3 |
| 20260904031856 | 86 | 208 | 0.0 | 5.0 | 0.00 | 0.00 | 0.00 | 100 | 1012.4 |
| 20260904031613 | 86 | 195 | 1.0 | 3.0 | 0.00 | 0.00 | 0.00 | 100 | 1012.4 |
| 20260904031356 | 86 | 195 | 1.0 | 3.0 | 0.00 | 0.00 | 0.00 | 100 | 1012.4 |
| 20260904031152 | 86 | 198 | 0.0 | 2.0 | 0.00 | 0.00 | 0.00 | 100 | 1012.4 |
| 20260904030856 | 86 | 198 | 0.0 | 2.0 | 0.00 | 0.00 | 0.00 | 100 | 1012.4 |
| 20260904030357 | 86 | 175 | 0.0 | 2.0 | 0.00 | 0.00 | 0.00 | 100 | 1012.4 |
| 20260904025857 | 86 | 151 | 0.0 | 0.0 | 0.00 | 0.00 | 0.00 | 100 | 1012.3 |
| 20260904025536 | 86 | 127 | 0.0 | 1.0 | 0.00 | 0.00 | 0.00 | 100 | 1012.4 |
| 20260904025356 | 86 | 127 | 0.0 | 1.0 | 0.00 | 0.00 | 0.00 | 100 | 1012.4 |
| 20260904024857 | 86 | 127 | 0.0 | 2.0 | 0.00 | 0.00 | 0.00 | 100 | 1012.5 |
| 20260904024613 | 86 | 170 | 0.0 | 3.0 | 0.00 | 0.00 | 0.00 | 100 | 1012.5 |
| 20260904024357 | 86 | 170 | 0.0 | 3.0 | 0.00 | 0.00 | 0.00 | 100 | 1012.5 |
| 20260904023857 | 86 | 191 | 0.0 | 2.0 | 0.00 | 0.00 | 0.00 | 100 | 1012.5 |
| 20260904023357 | 86 | 194 | 0.0 | 3.0 | 0.00 | 0.00 | 0.00 | 100 | 1012.4 |
| 20260904022857 | 86 | 180 | 0.0 | 3.0 | 0.00 | 0.00 | 0.00 | 100 | 1012.4 |
| 20260904022357 | 86 | 212 | 0.0 | 0.0 | 0.00 | 0.00 | 0.00 | 100 | 1012.3 |
| 20260904021857 | 86 | 212 | 0.0 | 0.0 | 0.00 | 0.00 | 0.00 | 100 | 1012.2 |
| 20260904021654 | 86 | 212 | 0.0 | 0.0 | 0.00 | 0.00 | 0.00 | 100 | 1012.0 |
| 20260904021357 | 86 | 212 | 0.0 | 0.0 | 0.00 | 0.00 | 0.00 | 100 | 1012.0 |
| 20260904020857 | 86 | 212 | 0.0 | 3.0 | 0.00 | 0.00 | 0.00 | 100 | 1012.0 |
| 20260904020357 | 86 | 168 | 0.0 | 0.0 | 0.00 | 0.00 | 0.00 | 100 | 1011.9 |
| 20260904015857 | 86 | 168 | 0.0 | 2.0 | 0.00 | 0.00 | 0.00 | 100 | 1010.2 |
| 20260904015357 | 86 | 189 | 0.0 | 4.0 | 0.00 | 0.00 | 0.00 | 100 | 1010.6 |
| 20260904014857 | 86 | 229 | 0.0 | 2.0 | 0.00 | 0.00 | 0.00 | 100 | 1010.2 |
| 20260904014614 | 86 | 157 | 0.0 | 1.0 | 0.00 | 0.00 | 0.00 | 100 | 1010.1 |
| 20260904014357 | 86 | 157 | 0.0 | 1.0 | 0.00 | 0.00 | 0.00 | 100 | 1010.1 |
| 20260904014129 | 87 | 206 | 1.0 | 1.0 | 0.00 | 0.00 | 0.00 | 100 | 1010.6 |
| 20260904013857 | 87 | 206 | 1.0 | 1.0 | 0.00 | 0.00 | 0.00 | 100 | 1010.6 |
| 20260904013627 | 87 | 151 | 0.0 | 3.0 | 0.00 | 0.00 | 0.00 | 100 | 1010.5 |
| 20260904013357 | 87 | 151 | 0.0 | 3.0 | 0.00 | 0.00 | 0.00 | 100 | 1010.5 |
| 20260904012857 | 87 | 202 | 0.0 | 3.0 | 0.00 | 0.00 | 0.00 | 100 | 1010.1 |
| 20260904012642 | 87 | 171 | 0.0 | 0.0 | 0.00 | 0.00 | 0.00 | 100 | 1010.1 |
| 20260904012357 | 87 | 171 | 0.0 | 0.0 | 0.00 | 0.00 | 0.00 | 100 | 1010.1 |
| 20260904011857 | 87 | 171 | 0.0 | 0.0 | 0.00 | 0.00 | 0.00 | 100 | 1010.5 |
| 20260904011622 | 87 | 171 | 0.0 | 3.0 | 0.00 | 0.00 | 0.00 | 100 | 1010.1 |
| 20260904011357 | 87 | 171 | 0.0 | 3.0 | 0.00 | 0.00 | 0.00 | 100 | 1010.1 |
| 20260904010857 | 87 | 198 | 0.0 | 6.0 | 0.00 | 0.00 | 0.00 | 100 | 1010.2 |
| 20260904010357 | 87 | 208 | 0.0 | 4.0 | 0.00 | 0.00 | 0.00 | 100 | 1010.2 |
| 20260904005857 | 87 | 206 | 0.0 | 2.0 | 0.00 | 0.00 | 0.00 | 100 | 1010.7 |
| 20260904005357 | 87 | 205 | 0.0 | 4.0 | 0.00 | 0.00 | 0.00 | 100 | 1010.5 |
| 20260904004857 | 87 | 182 | 2.0 | 3.0 | 0.00 | 0.00 | 0.00 | 100 | 1010.5 |
| 20260904004357 | 87 | 233 | 0.0 | 0.0 | 0.00 | 0.00 | 0.00 | 100 | 1010.5 |
| 20260904003857 | 87 | 233 | 0.0 | 0.0 | 0.00 | 0.00 | 0.00 | 100 | 1010.6 |
| 20260904003618 | 87 | 233 | 0.0 | 0.0 | 0.00 | 0.00 | 0.00 | 100 | 1010.4 |
| 20260904003357 | 87 | 233 | 0.0 | 0.0 | 0.00 | 0.00 | 0.00 | 100 | 1010.4 |
| 20260904002857 | 87 | 233 | 0.0 | 0.0 | 0.00 | 0.00 | 0.00 | 100 | 1011.0 |
| 20260904002625 | 87 | 233 | 0.0 | 0.0 | 0.00 | 0.00 | 0.00 | 100 | 1011.4 |
| 20260904002357 | 87 | 233 | 0.0 | 0.0 | 0.00 | 0.00 | 0.00 | 100 | 1011.4 |
| 20260904001857 | 88 | 233 | 0.0 | 2.0 | 0.00 | 0.00 | 0.00 | 100 | 1011.4 |
| 20260904001614 | 88 | 213 | 0.0 | 0.0 | 0.00 | 0.00 | 0.00 | 100 | 1011.3 |
| 20260904001357 | 88 | 213 | 0.0 | 0.0 | 0.00 | 0.00 | 0.00 | 100 | 1011.3 |
| 20260904000857 | 88 | 213 | 0.0 | 1.0 | 0.00 | 0.00 | 0.00 | 100 | 1011.4 |
| 20260904000633 | 88 | 180 | 0.0 | 1.0 | 0.00 | 0.00 | 0.00 | 100 | 1011.4 |
| 20260904000357 | 88 | 180 | 0.0 | 1.0 | 0.00 | 0.00 | 0.00 | 100 | 1011.4 |
| 20260903235857 | 88 | 115 | 0.0 | 3.0 | 0.00 | 0.00 | 0.00 | 100 | 1011.4 |
| 20260903235623 | 88 | 158 | 0.0 | 2.0 | 0.00 | 0.00 | 0.00 | 100 | 1011.4 |
| 20260903235357 | 88 | 158 | 0.0 | 2.0 | 0.00 | 0.00 | 0.00 | 100 | 1011.4 |
| 20260903234857 | 88 | 199 | 0.0 | 2.0 | 0.00 | 0.00 | 0.00 | 100 | 1011.4 |
| 20260903234357 | 88 | 85 | 0.0 | 6.0 | 0.00 | 0.00 | 0.00 | 100 | 1011.2 |
| 20260903233857 | 88 | 157 | 0.0 | 2.0 | 0.00 | 0.00 | 0.00 | 100 | 1011.4 |
| 20260903233555 | 88 | 56 | 0.0 | 2.0 | 0.00 | 0.00 | 0.00 | 100 | 1011.1 |
| 20260903233357 | 88 | 56 | 0.0 | 2.0 | 0.00 | 0.00 | 0.00 | 100 | 1011.1 |
| 20260903232857 | 89 | 42 | 0.0 | 0.0 | 0.00 | 0.00 | 0.00 | 100 | 1011.1 |
| 20260903232700 | 89 | 42 | 0.0 | 0.0 | 0.00 | 0.00 | 0.00 | 100 | 1011.2 |
| 20260903232357 | 89 | 42 | 0.0 | 0.0 | 0.00 | 0.00 | 0.00 | 100 | 1011.2 |
| 20260903231857 | 89 | 42 | 0.0 | 0.0 | 0.00 | 0.00 | 0.00 | 100 | 1011.2 |
| 20260903231717 | 89 | 42 | 0.0 | 0.0 | 0.00 | 0.00 | 0.00 | 100 | 1011.3 |
| 20260903231357 | 89 | 42 | 0.0 | 0.0 | 0.00 | 0.00 | 0.00 | 100 | 1011.3 |
| 20260903231201 | 89 | 42 | 0.0 | 0.0 | 0.00 | 0.00 | 0.00 | 100 | 1011.3 |
| 20260903230857 | 89 | 42 | 0.0 | 0.0 | 0.00 | 0.00 | 0.00 | 100 | 1011.3 |
| 20260903230646 | 89 | 42 | 0.0 | 0.0 | 0.00 | 0.00 | 0.00 | 100 | 1011.3 |
| 20260903230357 | 89 | 42 | 0.0 | 0.0 | 0.00 | 0.00 | 0.00 | 100 | 1011.3 |
| 20260903225857 | 89 | 42 | 0.0 | 0.0 | 0.00 | 0.00 | 0.00 | 100 | 1011.2 |
| 20260903225714 | 89 | 42 | 0.0 | 0.0 | 0.00 | 0.00 | 0.00 | 100 | 1011.1 |
| 20260903225357 | 89 | 42 | 0.0 | 0.0 | 0.00 | 0.00 | 0.00 | 100 | 1011.1 |
| 20260903225157 | 89 | 42 | 0.0 | 0.0 | 0.00 | 0.00 | 0.00 | 100 | 1011.1 |
| 20260903224857 | 89 | 42 | 0.0 | 0.0 | 0.00 | 0.00 | 0.00 | 100 | 1011.1 |
| 20260903224537 | 89 | 42 | 0.0 | 3.0 | 0.00 | 0.00 | 0.00 | 100 | 1010.1 |
| 20260903224357 | 89 | 42 | 0.0 | 3.0 | 0.00 | 0.00 | 0.00 | 100 | 1010.1 |
| 20260903223857 | 89 | 64 | 0.0 | 3.0 | 0.00 | 0.00 | 0.00 | 100 | 1010.7 |
| 20260903223612 | 90 | 156 | 0.0 | 3.0 | 0.00 | 0.00 | 0.00 | 100 | 1010.0 |
| 20260903223357 | 90 | 156 | 0.0 | 3.0 | 0.00 | 0.00 | 0.00 | 100 | 1010.0 |
| 20260903222857 | 90 | 70 | 0.0 | 3.0 | 0.00 | 0.00 | 0.00 | 100 | 1010.1 |
| 20260903222357 | 90 | 81 | 0.0 | 3.0 | 0.00 | 0.00 | 0.00 | 100 | 1010.0 |
| 20260903221857 | 90 | 80 | 1.0 | 3.0 | 0.00 | 0.00 | 0.00 | 100 | 1010.1 |
| 20260903221549 | 90 | 19 | 0.0 | 4.0 | 0.00 | 0.00 | 0.00 | 100 | 1010.9 |
| 20260903221357 | 90 | 19 | 0.0 | 4.0 | 0.00 | 0.00 | 0.00 | 100 | 1010.9 |
| 20260903220857 | 90 | 348 | 3.0 | 4.0 | 0.00 | 0.00 | 0.00 | 100 | 1011.0 |
| 20260903220615 | 90 | 8 | 0.0 | 3.0 | 0.00 | 0.00 | 0.00 | 100 | 1010.1 |
| 20260903220357 | 90 | 8 | 0.0 | 3.0 | 0.00 | 0.00 | 0.00 | 100 | 1010.1 |
| 20260903215857 | 90 | 354 | 3.0 | 4.0 | 0.00 | 0.00 | 0.00 | 100 | 1011.0 |
| 20260903215621 | 90 | 22 | 0.0 | 5.0 | 0.00 | 0.00 | 0.00 | 100 | 1010.7 |
| 20260903215357 | 90 | 22 | 0.0 | 5.0 | 0.00 | 0.00 | 0.00 | 100 | 1010.7 |
| 20260903215204 | 90 | 99 | 1.0 | 5.0 | 0.00 | 0.00 | 0.00 | 100 | 1010.9 |
| 20260903214857 | 90 | 99 | 1.0 | 5.0 | 0.00 | 0.00 | 0.00 | 100 | 1010.9 |
| 20260903214709 | 90 | 30 | 1.0 | 7.0 | 0.00 | 0.00 | 0.00 | 100 | 1010.8 |
| 20260903214357 | 90 | 30 | 1.0 | 7.0 | 0.00 | 0.00 | 0.00 | 100 | 1010.8 |
| 20260903213857 | 89 | 327 | 0.0 | 4.0 | 0.00 | 0.00 | 0.00 | 100 | 1010.8 |
| 20260903213357 | 89 | 77 | 0.0 | 4.0 | 0.00 | 0.00 | 0.00 | 100 | 1009.7 |
| 20260903212857 | 88 | 18 | 2.0 | 4.0 | 0.00 | 0.00 | 0.00 | 100 | 1009.6 |
| 20260903212357 | 88 | 7 | 2.0 | 3.0 | 0.00 | 0.00 | 0.00 | 100 | 1010.6 |
| 20260903211857 | 88 | 102 | 0.0 | 0.0 | 0.00 | 0.00 | 0.00 | 100 | 1010.6 |
| 20260903211357 | 88 | 14 | 0.0 | 4.0 | 0.00 | 0.00 | 0.00 | 100 | 1010.6 |
| 20260903211225 | 88 | 77 | 3.0 | 5.0 | 0.00 | 0.00 | 0.00 | 100 | 1010.9 |
| 20260903210857 | 88 | 77 | 3.0 | 5.0 | 0.00 | 0.00 | 0.00 | 100 | 1010.9 |
| 20260903210357 | 88 | 67 | 1.0 | 7.0 | 0.00 | 0.00 | 0.00 | 100 | 1011.0 |
| 20260903205857 | 88 | 70 | 3.0 | 7.0 | 0.00 | 0.00 | 0.00 | 100 | 1010.9 |
| 20260903205357 | 89 | 111 | 0.0 | 4.0 | 0.00 | 0.00 | 0.00 | 100 | 1010.9 |
| 20260903204857 | 89 | 40 | 0.0 | 6.0 | 0.00 | 0.00 | 0.00 | 100 | 1010.9 |
| 20260903204715 | 89 | 77 | 2.0 | 11.0 | 0.00 | 0.00 | 0.00 | 100 | 1010.9 |
| 20260903204357 | 89 | 77 | 2.0 | 11.0 | 0.00 | 0.00 | 0.00 | 100 | 1010.9 |
| 20260903204223 | 90 | 42 | 6.0 | 8.0 | 0.00 | 0.00 | 0.00 | 100 | 1010.9 |
| 20260903203857 | 90 | 42 | 6.0 | 8.0 | 0.00 | 0.00 | 0.00 | 100 | 1010.9 |
| 20260903203357 | 90 | 80 | 1.0 | 6.0 | 0.00 | 0.00 | 0.00 | 100 | 1010.7 |
| 20260903202857 | 89 | 43 | 4.0 | 6.0 | 0.00 | 0.00 | 0.00 | 100 | 1010.7 |
| 20260903202357 | 89 | 80 | 2.0 | 6.0 | 0.00 | 0.00 | 0.00 | 100 | 1010.8 |
| 20260903201857 | 88 | 81 | 2.0 | 4.0 | 0.00 | 0.00 | 0.00 | 100 | 1010.9 |
| 20260903201720 | 88 | 47 | 3.0 | 7.0 | 0.00 | 0.00 | 0.00 | 100 | 1011.2 |
| 20260903201357 | 88 | 47 | 3.0 | 7.0 | 0.00 | 0.00 | 0.00 | 100 | 1011.2 |
| 20260903200857 | 88 | 358 | 6.0 | 9.0 | 0.00 | 0.00 | 0.00 | 100 | 1011.2 |
| 20260903200718 | 88 | 33 | 5.0 | 8.0 | 0.00 | 0.00 | 0.00 | 100 | 1011.1 |
| 20260903200357 | 88 | 33 | 5.0 | 8.0 | 0.00 | 0.00 | 0.00 | 100 | 1011.1 |
| 20260903200213 | 88 | 59 | 4.0 | 10.0 | 0.00 | 0.00 | 0.00 | 100 | 1010.8 |
| 20260903195857 | 88 | 59 | 4.0 | 10.0 | 0.00 | 0.00 | 0.00 | 100 | 1010.8 |
| 20260903195357 | 88 | 15 | 6.0 | 9.0 | 0.00 | 0.00 | 0.00 | 100 | 1010.8 |
| 20260903195156 | 88 | 15 | 8.0 | 8.0 | 0.00 | 0.00 | 0.00 | 100 | 1010.9 |
| 20260903194857 | 88 | 15 | 8.0 | 8.0 | 0.00 | 0.00 | 0.00 | 100 | 1010.9 |
| 20260903194357 | 88 | 43 | 8.0 | 8.0 | 0.00 | 0.00 | 0.00 | 100 | 1011.2 |
| 20260903194211 | 89 | 16 | 2.0 | 9.0 | 0.00 | 0.00 | 0.00 | 100 | 1011.5 |
| 20260903193857 | 89 | 16 | 2.0 | 9.0 | 0.00 | 0.00 | 0.00 | 100 | 1011.5 |
| 20260903193359 | 89 | 9 | 9.0 | 9.0 | 0.00 | 0.00 | 0.00 | 100 | 1011.6 |
| 20260903193245 | 88 | 52 | 4.0 | 13.0 | 0.00 | 0.00 | 0.00 | 100 | 1011.5 |
| 20260903192857 | 88 | 52 | 4.0 | 13.0 | 0.00 | 0.00 | 0.00 | 100 | 1011.5 |
| 20260903192357 | 89 | 12 | 11.0 | 15.0 | 0.00 | 0.00 | 0.00 | 100 | 1011.6 |
| 20260903192207 | 89 | 32 | 6.0 | 10.0 | 0.00 | 0.00 | 0.00 | 100 | 1011.7 |
| 20260903191857 | 89 | 32 | 6.0 | 10.0 | 0.00 | 0.00 | 0.00 | 100 | 1011.7 |
| 20260903191357 | 89 | 28 | 5.0 | 12.0 | 0.00 | 0.00 | 0.00 | 100 | 1011.6 |
| 20260903191209 | 89 | 358 | 8.0 | 11.0 | 0.00 | 0.00 | 0.00 | 100 | 1011.4 |
| 20260903190857 | 89 | 358 | 8.0 | 11.0 | 0.00 | 0.00 | 0.00 | 100 | 1011.4 |
| 20260903190557 | 89 | 7 | 5.0 | 10.0 | 0.00 | 0.00 | 0.00 | 100 | 1011.4 |
| 20260903190357 | 89 | 7 | 5.0 | 10.0 | 0.00 | 0.00 | 0.00 | 100 | 1011.4 |
| 20260903185857 | 90 | 39 | 6.0 | 10.0 | 0.00 | 0.00 | 0.00 | 100 | 1011.5 |
| 20260903185657 | 89 | 28 | 7.0 | 11.0 | 0.00 | 0.00 | 0.00 | 100 | 1011.7 |
| 20260903185357 | 89 | 28 | 7.0 | 11.0 | 0.00 | 0.00 | 0.00 | 100 | 1011.7 |
| 20260903185121 | 90 | 336 | 5.0 | 11.0 | 0.00 | 0.00 | 0.00 | 100 | 1011.7 |
| 20260903184857 | 90 | 336 | 5.0 | 11.0 | 0.00 | 0.00 | 0.00 | 100 | 1011.7 |
| 20260903184719 | 90 | 345 | 8.0 | 12.0 | 0.00 | 0.00 | 0.00 | 100 | 1011.8 |
| 20260903184357 | 90 | 345 | 8.0 | 12.0 | 0.00 | 0.00 | 0.00 | 100 | 1011.8 |
| 20260903183857 | 91 | 11 | 11.0 | 14.0 | 0.00 | 0.00 | 0.00 | 100 | 1011.7 |
| 20260903183656 | 92 | 7 | 7.0 | 8.0 | 0.00 | 0.00 | 0.00 | 100 | 1011.6 |
| 20260903183357 | 92 | 7 | 7.0 | 8.0 | 0.00 | 0.00 | 0.00 | 100 | 1011.6 |
| 20260903182857 | 92 | 330 | 0.0 | 4.0 | 0.00 | 0.00 | 0.00 | 100 | 1011.7 |
| 20260903182357 | 93 | 21 | 4.0 | 8.0 | 0.00 | 0.00 | 0.00 | 100 | 1011.5 |
| 20260903181857 | 94 | 305 | 1.0 | 8.0 | 0.00 | 0.00 | 0.00 | 100 | 1011.8 |
| 20260903181600 | 94 | 23 | 0.0 | 4.0 | 0.00 | 0.00 | 0.00 | 100 | 1011.8 |
| 20260903181357 | 94 | 23 | 0.0 | 4.0 | 0.00 | 0.00 | 0.00 | 100 | 1011.8 |
| 20260903181215 | 94 | 192 | 3.0 | 6.0 | 0.00 | 0.00 | 0.00 | 100 | 1011.7 |
| 20260903180857 | 94 | 192 | 3.0 | 6.0 | 0.00 | 0.00 | 0.00 | 100 | 1011.7 |
| 20260903180357 | 94 | 156 | 1.0 | 8.0 | 0.00 | 0.00 | 0.00 | 100 | 1011.7 |
| 20260903175857 | 93 | 210 | 2.0 | 8.0 | 0.00 | 0.00 | 0.00 | 100 | 1011.8 |
| 20260903175715 | 93 | 178 | 1.0 | 6.0 | 0.00 | 0.00 | 0.00 | 100 | 1011.9 |
| 20260903175357 | 93 | 178 | 1.0 | 6.0 | 0.00 | 0.00 | 0.00 | 100 | 1011.9 |
| 20260903175213 | 92 | 206 | 5.0 | 7.0 | 0.00 | 0.00 | 0.00 | 100 | 1012.0 |
| 20260903174857 | 92 | 206 | 5.0 | 7.0 | 0.00 | 0.00 | 0.00 | 100 | 1012.0 |
| 20260903174357 | 92 | 258 | 1.0 | 5.0 | 0.00 | 0.00 | 0.00 | 100 | 1012.1 |
| 20260903174121 | 92 | 202 | 1.0 | 5.0 | 0.00 | 0.00 | 0.00 | 100 | 1012.2 |
| 20260903173857 | 92 | 202 | 1.0 | 5.0 | 0.00 | 0.00 | 0.00 | 100 | 1012.2 |
| 20260903173639 | 92 | 202 | 1.0 | 8.0 | 0.00 | 0.00 | 0.00 | 100 | 1012.1 |
| 20260903173357 | 92 | 202 | 1.0 | 8.0 | 0.00 | 0.00 | 0.00 | 100 | 1012.1 |
| 20260903172857 | 93 | 234 | 0.0 | 7.0 | 0.00 | 0.00 | 0.00 | 100 | 1012.1 |
| 20260903172714 | 94 | 212 | 1.0 | 5.0 | 0.00 | 0.00 | 0.00 | 100 | 1012.2 |
| 20260903172357 | 94 | 212 | 1.0 | 5.0 | 0.00 | 0.00 | 0.00 | 100 | 1012.2 |
| 20260903171857 | 94 | 39 | 0.0 | 3.0 | 0.00 | 0.00 | 0.00 | 100 | 1012.2 |
| 20260903171640 | 94 | 223 | 0.0 | 4.0 | 0.00 | 0.00 | 0.00 | 100 | 1012.3 |
| 20260903171357 | 94 | 223 | 0.0 | 4.0 | 0.00 | 0.00 | 0.00 | 100 | 1012.3 |
| 20260903171339 | 93 | 129 | 0.0 | 5.0 | 0.00 | 0.00 | 0.00 | 100 | 1012.4 |
| 20260903170857 | 93 | 129 | 0.0 | 5.0 | 0.00 | 0.00 | 0.00 | 100 | 1012.4 |
| 20260903170357 | 93 | 265 | 0.0 | 3.0 | 0.00 | 0.00 | 0.00 | 100 | 1012.5 |
| 20260903170137 | 94 | 119 | 2.0 | 5.0 | 0.00 | 0.00 | 0.00 | 100 | 1012.6 |
| 20260903165857 | 94 | 119 | 2.0 | 5.0 | 0.00 | 0.00 | 0.00 | 100 | 1012.6 |
| 20260903165357 | 94 | 156 | 3.0 | 7.0 | 0.00 | 0.00 | 0.00 | 100 | 1012.6 |
| 20260903165134 | 94 | 163 | 3.0 | 6.0 | 0.00 | 0.00 | 0.00 | 100 | 1012.7 |
| 20260903164857 | 94 | 163 | 3.0 | 6.0 | 0.00 | 0.00 | 0.00 | 100 | 1012.7 |
| 20260903164718 | 94 | 187 | 1.0 | 7.0 | 0.00 | 0.00 | 0.00 | 100 | 1012.7 |
| 20260903164357 | 94 | 187 | 1.0 | 7.0 | 0.00 | 0.00 | 0.00 | 100 | 1012.7 |
| 20260903163857 | 94 | 195 | 3.0 | 8.0 | 0.00 | 0.00 | 0.00 | 100 | 1012.8 |
| 20260903163625 | 93 | 178 | 3.0 | 6.0 | 0.00 | 0.00 | 0.00 | 100 | 1012.9 |
| 20260903163357 | 93 | 178 | 3.0 | 6.0 | 0.00 | 0.00 | 0.00 | 100 | 1012.9 |
| 20260903163203 | 93 | 157 | 6.0 | 6.0 | 0.00 | 0.00 | 0.00 | 100 | 1012.9 |
| 20260903162857 | 93 | 157 | 6.0 | 6.0 | 0.00 | 0.00 | 0.00 | 100 | 1012.9 |
| 20260903162357 | 92 | 154 | 4.0 | 6.0 | 0.00 | 0.00 | 0.00 | 100 | 1012.8 |
| 20260903161857 | 92 | 144 | 0.0 | 6.0 | 0.00 | 0.00 | 0.00 | 100 | 1012.8 |
| 20260903161357 | 92 | 111 | 5.0 | 5.0 | 0.00 | 0.00 | 0.00 | 100 | 1012.7 |
| 20260903160857 | 92 | 203 | 0.0 | 4.0 | 0.00 | 0.00 | 0.00 | 100 | 1012.7 |
| 20260903160357 | 92 | 196 | 2.0 | 6.0 | 0.00 | 0.00 | 0.00 | 100 | 1012.7 |
| 20260903155858 | 92 | 220 | 2.0 | 6.0 | 0.00 | 0.00 | 0.00 | 100 | 1012.8 |
| 20260903155714 | 92 | 99 | 0.0 | 6.0 | 0.00 | 0.00 | 0.00 | 100 | 1012.8 |
| 20260903155357 | 92 | 99 | 0.0 | 6.0 | 0.00 | 0.00 | 0.00 | 100 | 1012.8 |
| 20260903154857 | 92 | 156 | 2.0 | 9.0 | 0.00 | 0.00 | 0.00 | 100 | 1012.9 |
| 20260903154357 | 92 | 187 | 2.0 | 7.0 | 0.00 | 0.00 | 0.00 | 100 | 1013.0 |
| 20260903153858 | 92 | 187 | 5.0 | 5.0 | 0.00 | 0.00 | 0.00 | 100 | 1012.9 |
| 20260903153804 | 92 | 293 | 0.0 | 6.0 | 0.00 | 0.00 | 0.00 | 100 | 1012.8 |
| 20260903153358 | 92 | 293 | 0.0 | 6.0 | 0.00 | 0.00 | 0.00 | 100 | 1012.8 |
| 20260903153152 | 92 | 254 | 1.0 | 6.0 | 0.00 | 0.00 | 0.00 | 100 | 1012.9 |
| 20260903152858 | 92 | 254 | 1.0 | 6.0 | 0.00 | 0.00 | 0.00 | 100 | 1012.9 |
| 20260903152721 | 91 | 247 | 2.0 | 7.0 | 0.00 | 0.00 | 0.00 | 100 | 1012.9 |
| 20260903152357 | 91 | 247 | 2.0 | 7.0 | 0.00 | 0.00 | 0.00 | 100 | 1012.9 |
| 20260903152218 | 91 | 192 | 5.0 | 7.0 | 0.00 | 0.00 | 0.00 | 100 | 1012.9 |
| 20260903151858 | 91 | 192 | 5.0 | 7.0 | 0.00 | 0.00 | 0.00 | 100 | 1012.9 |
| 20260903151358 | 91 | 168 | 0.0 | 6.0 | 0.00 | 0.00 | 0.00 | 100 | 1012.9 |
| 20260903151302 | 91 | 205 | 2.0 | 6.0 | 0.00 | 0.00 | 0.00 | 100 | 1012.9 |
| 20260903150858 | 91 | 205 | 2.0 | 6.0 | 0.00 | 0.00 | 0.00 | 100 | 1012.9 |
| 20260903150358 | 90 | 180 | 4.0 | 9.0 | 0.00 | 0.00 | 0.00 | 100 | 1012.9 |
| 20260903150122 | 90 | 251 | 1.0 | 7.0 | 0.00 | 0.00 | 0.00 | 100 | 1012.9 |
| 20260903145858 | 90 | 251 | 1.0 | 7.0 | 0.00 | 0.00 | 0.00 | 100 | 1012.9 |
| 20260903145715 | 89 | 172 | 0.0 | 7.0 | 0.00 | 0.00 | 0.00 | 100 | 1012.9 |
| 20260903145358 | 89 | 172 | 0.0 | 7.0 | 0.00 | 0.00 | 0.00 | 100 | 1012.9 |
| 20260903144858 | 89 | 217 | 4.0 | 5.0 | 0.00 | 0.00 | 0.00 | 100 | 1012.9 |